TimeMDT,TemperatureF,Dew PointF,Humidity,Sea Level PressureIn,VisibilityMPH,Wind Direction,Wind SpeedMPH,Gust SpeedMPH,PrecipitationIn,Events,Conditions,WindDirDegrees,DateUTC
12:53 AM,68.0,60.1,76,29.79,10.0,NE,11.5,-,N/A,,Partly Cloudy,50,2013-09-15 06:53:00
1:53 AM,68.0,59.0,73,29.79,10.0,ENE,8.1,-,N/A,,Mostly Cloudy,60,2013-09-15 07:53:00
2:53 AM,66.9,57.9,73,29.77,10.0,NE,12.7,-,N/A,,Partly Cloudy,50,2013-09-15 08:53:00
3:53 AM,64.9,57.9,78,29.79,10.0,East,9.2,-,N/A,,Clear,80,2013-09-15 09:53:00
4:53 AM,66.0,57.9,75,29.80,10.0,NE,6.9,-,N/A,,Scattered Clouds,50,2013-09-15 10:53:00
5:53 AM,64.9,57.9,78,29.81,10.0,East,6.9,-,N/A,,Mostly Cloudy,80,2013-09-15 11:53:00
6:53 AM,64.9,57.0,75,29.84,10.0,ENE,9.2,-,N/A,,Clear,70,2013-09-15 12:53:00
7:53 AM,64.0,57.9,80,29.87,10.0,East,8.1,-,N/A,,Partly Cloudy,80,2013-09-15 13:53:00
8:53 AM,68.0,57.0,68,29.88,10.0,ENE,12.7,-,N/A,,Clear,60,2013-09-15 14:53:00
9:53 AM,73.9,55.0,52,29.88,10.0,ENE,15.0,-,N/A,,Clear,70,2013-09-15 15:53:00
10:53 AM,78.1,54.0,43,29.87,10.0,ENE,15.0,19.6,N/A,,Clear,60,2013-09-15 16:53:00
11:53 AM,78.1,55.9,46,29.87,10.0,East,13.8,18.4,N/A,,Clear,100,2013-09-15 17:53:00
12:53 PM,81.0,55.9,42,29.85,10.0,East,11.5,-,N/A,,Clear,90,2013-09-15 18:53:00
1:53 PM,82.9,57.0,41,29.83,10.0,ESE,9.2,18.4,N/A,,Clear,120,2013-09-15 19:53:00
2:53 PM,82.9,57.0,41,29.82,10.0,Variable,6.9,-,N/A,,Clear,0,2013-09-15 20:53:00
3:53 PM,84.0,57.0,40,29.80,10.0,East,8.1,-,N/A,,Clear,90,2013-09-15 21:53:00
4:53 PM,82.9,55.9,39,29.78,10.0,East,9.2,-,N/A,,Partly Cloudy,100,2013-09-15 22:53:00
5:53 PM,82.9,55.9,39,29.79,10.0,ESE,10.4,-,N/A,,Clear,110,2013-09-15 23:53:00
6:53 PM,79.0,59.0,50,29.81,10.0,SE,11.5,-,N/A,,Clear,130,2013-09-16 00:53:00
7:53 PM,75.0,57.0,53,29.84,10.0,East,6.9,-,N/A,,Clear,100,2013-09-16 01:53:00
8:53 PM,75.0,57.0,53,29.86,10.0,East,8.1,-,N/A,,Clear,100,2013-09-16 02:53:00
9:53 PM,70.0,60.1,71,29.88,10.0,East,4.6,-,N/A,,Clear,80,2013-09-16 03:53:00
10:53 PM,70.0,59.0,68,29.88,10.0,East,5.8,-,N/A,,Overcast,100,2013-09-16 04:53:00
11:53 PM,68.0,59.0,73,29.88,10.0,ENE,4.6,-,N/A,,Clear,70,2013-09-16 05:53:00